TimeEST,TemperatureF,Dew PointF,Humidity,Sea Level PressureIn,VisibilityMPH,Wind Direction,Wind SpeedMPH,Gust SpeedMPH,PrecipitationIn,Events,Conditions,WindDirDegrees,DateUTC
12:53 AM,5.0,-0.0,80,30.29,10.0,South,3.5,-,N/A,,Clear,180,2013-02-18 05:53:00
1:53 AM,7.0,3.0,84,30.28,10.0,South,5.8,-,N/A,,Clear,190,2013-02-18 06:53:00
2:53 AM,10.0,3.9,76,30.27,10.0,South,6.9,-,N/A,,Clear,170,2013-02-18 07:53:00
3:53 AM,10.0,3.9,76,30.26,10.0,South,4.6,-,N/A,,Clear,180,2013-02-18 08:53:00
4:53 AM,10.0,3.9,76,30.25,10.0,South,6.9,-,N/A,,Clear,170,2013-02-18 09:53:00
5:53 AM,10.9,5.0,77,30.25,10.0,South,8.1,-,N/A,,Clear,170,2013-02-18 10:53:00
6:53 AM,12.9,6.1,74,30.23,10.0,South,9.2,-,N/A,,Clear,180,2013-02-18 11:53:00
7:53 AM,18.0,7.0,62,30.22,10.0,South,13.8,-,N/A,,Scattered Clouds,180,2013-02-18 12:53:00
9:53 AM,23.0,10.0,58,30.17,10.0,South,16.1,-,N/A,,Partly Cloudy,180,2013-02-18 14:53:00
10:53 AM,26.1,12.0,55,30.12,10.0,South,17.3,26.5,N/A,,Clear,170,2013-02-18 15:53:00
11:53 AM,30.0,14.0,51,30.08,10.0,South,17.3,27.6,N/A,,Clear,180,2013-02-18 16:53:00
12:53 PM,34.0,17.1,50,30.04,10.0,South,17.3,28.8,0.00,,Clear,180,2013-02-18 17:53:00
1:53 PM,37.0,19.0,48,30.01,10.0,South,17.3,24.2,N/A,,Clear,190,2013-02-18 18:53:00
2:53 PM,39.9,21.9,49,29.97,10.0,South,19.6,26.5,N/A,,Clear,180,2013-02-18 19:53:00
3:53 PM,42.1,25.0,51,29.95,10.0,South,16.1,24.2,N/A,,Clear,190,2013-02-18 20:53:00
4:53 PM,43.0,26.1,51,29.93,10.0,South,18.4,25.3,N/A,,Clear,180,2013-02-18 21:53:00
5:53 PM,42.1,27.0,55,29.90,10.0,South,17.3,-,N/A,,Clear,170,2013-02-18 22:53:00
6:53 PM,43.0,27.0,53,29.89,10.0,South,17.3,-,N/A,,Scattered Clouds,180,2013-02-18 23:53:00
7:53 PM,43.0,28.0,56,29.87,10.0,South,16.1,-,N/A,,Overcast,180,2013-02-19 00:53:00
8:53 PM,43.0,28.9,58,29.83,10.0,South,18.4,-,N/A,,Overcast,180,2013-02-19 01:53:00
9:53 PM,44.1,30.0,58,29.80,10.0,South,18.4,24.2,N/A,,Overcast,180,2013-02-19 02:53:00
10:53 PM,46.0,30.0,54,29.75,10.0,South,18.4,-,N/A,,Overcast,190,2013-02-19 03:53:00
11:53 PM,46.9,30.0,52,29.71,10.0,South,17.3,27.6,N/A,,Mostly Cloudy,190,2013-02-19 04:53:00